Flag for Germany Weather past 2 weeks in Brühl (Rhineland), North Rhine-Westphalia, Germany

Now
61 °F

Refreshingly cool.


Feels Like: 61 °F
Forecast: 49 / 62 °F
Wind: 6 mph from Southwest

Location: Noervenich

Current Time: May 29, 2015 at 5:38:27 PM

Latest Report: May 29, 2015 at 4:00 PM


Visibility: 9 mi

Pressure: 29.79 "Hg

Humidity: 53%

Dew point: 44 °F

Location of Brühl (Rhineland)Location

Historic Weather in Brühl (Rhineland) — Graph

°F

Brühl (Rhineland) temperature yesterday

Maximum temperature yesterday: 65 °F (at 3:00 PM)
Minimum temperature yesterday: 53 °F (at 2:00 AM)
Average temperature yesterday: 58 °F

Past Weeks' High & Low Weather Summary

 TemperatureHumidityPressure
High70 °F (May 18, 3:00 PM)95% (May 15, 12:00 AM)30.35 "Hg (May 15, 12:00 AM)
Low38 °F (May 21, 6:00 AM)37% (May 18, 3:00 PM)29.65 "Hg (May 18, 8:00 PM)
Average55 °F67%30.08 "Hg
* Reported May 14 4:00 PM — May 29 4:00 PM, Brühl (Rhineland), Weather by CustomWeather, © 2015

Note: Actual official high and low records may vary slightly from our data, if they occured in-between our weather recording intervals... More about our weather records

Advertising

Brühl (Rhineland) weather history for previous 24 hours

 ConditionsComfort  
Time TempWeatherWind HumidityBarometerVisibility
4:00 PM
Fri, May 29
61 °FRefreshingly cool.6 mph53%29.79 "Hg9 mi
3:00 PM62 °FRefreshingly cool.5 mph54%29.80 "Hg7 mi
2:00 PM60 °FRefreshingly cool.1 mph54%29.82 "Hg7 mi
1:00 PM60 °FRefreshingly cool.3 mph54%29.84 "Hg9 mi
12:00 PM58 °FOvercast.3 mph55%29.86 "Hg19 mi
10:00 AM55 °FOvercast.3 mph58%29.90 "Hg19 mi
9:00 AM54 °FOvercast.2 mph68%29.90 "Hg19 mi
8:00 AM50 °FOvercast.2 mph74%29.91 "Hg19 mi
7:00 AM48 °FOvercast.1 mph78%29.92 "Hg19 mi
6:00 AM48 °FOvercast.1 mph78%29.92 "Hg19 mi
5:00 AMN/APassing clouds.3 mphN/AN/A1 mi
4:00 AM50 °FOvercast.1 mph76%29.94 "Hg19 mi
3:00 AM51 °FOvercast.2 mph76%29.96 "Hg19 mi
1:00 AM51 °FOvercast.1 mph84%29.97 "Hg19 mi
12:00 AM54 °FOvercast.1 mph75%29.97 "Hg19 mi
10:00 PM
Thu, May 28
55 °FOvercast.2 mph73%29.97 "Hg16 mi
9:00 PM57 °FOvercast.2 mph73%29.96 "Hg19 mi
7:00 PM62 °FOvercast.7 mph54%29.93 "Hg22 mi
6:00 PM64 °FOvercast.8 mph53%29.93 "Hg22 mi
Weather by CustomWeather, © 2015

See weather overviewHow to use our weather pages